This is the latest recevied weather packets stored in our database for station/object KB0RPJ. If no packets are shown the sender has not sent any weather packets the latest 10 day(s).
| Time | Temp. | Humidity | Pressure | Rain* | Wind** | Luminosity | Snow |
|---|---|---|---|---|---|---|---|
| 1777425005 | 12.78° C | 57% | 1014.8 hPa | 0 mm | - | 0 W/m² | - |
| 1777424705 | 13.33° C | 57% | 1014.7 hPa | 0 mm | - | 4 W/m² | - |
| 1777424404 | 13.33° C | 57% | 1014.6 hPa | 0 mm | - | 5 W/m² | - |
| 1777424105 | 13.33° C | 57% | 1014.7 hPa | 0 mm | - | 7 W/m² | - |
| 1777423807 | 13.33° C | 56% | 1014.5 hPa | 0 mm | - | 11 W/m² | - |
| 1777423504 | 13.89° C | 58% | 1014.4 hPa | 0 mm | - | 18 W/m² | - |
| 1777423205 | 13.89° C | 57% | 1014.2 hPa | 0 mm | - | 20 W/m² | - |
| 1777422905 | 13.89° C | 58% | 1014.1 hPa | 0 mm | - | 22 W/m² | - |
| 1777422605 | 13.89° C | 57% | 1014 hPa | 0 mm | - | 24 W/m² | - |
| 1777422305 | 14.44° C | 57% | 1014 hPa | 0 mm | - | 26 W/m² | - |
| 1777422005 | 14.44° C | 58% | 1014.1 hPa | 0 mm | - | 31 W/m² | - |
| 1777421705 | 15° C | 57% | 1014 hPa | 0 mm | - | 38 W/m² | - |
| 1777421405 | 15° C | 56% | 1014.1 hPa | 0 mm | - | 43 W/m² | - |
| 1777421105 | 15.56° C | 56% | 1014.2 hPa | 0 mm | - | 54 W/m² | - |
| 1777420805 | 15.56° C | 56% | 1014.1 hPa | 0 mm | - | 95 W/m² | - |
| 1777420505 | 15.56° C | 54% | 1014.2 hPa | 0 mm | - | 137 W/m² | - |
| 1777420205 | 15.56° C | 54% | 1014.1 hPa | 0 mm | - | 58 W/m² | - |
| 1777419905 | 15.56° C | 54% | 1014.1 hPa | 0 mm | - | 62 W/m² | - |
| 1777419605 | 15.56° C | 54% | 1014.2 hPa | 0 mm | - | 79 W/m² | - |
| 1777419305 | 15.56° C | 55% | 1014.1 hPa | 0 mm | - | 88 W/m² | - |
| 1777419005 | 16.11° C | 55% | 1014.1 hPa | 0 mm | - | 113 W/m² | - |
| 1777418718 | 16.11° C | 56% | 1014.1 hPa | 0 mm | - | 117 W/m² | - |
| 1777418406 | 16.11° C | 56% | 1014 hPa | 0 mm | - | 116 W/m² | - |
| 1777418113 | 16.11° C | 54% | 1014.1 hPa | 0 mm | - | 100 W/m² | - |
| 1777417806 | 16.11° C | 54% | 1013.8 hPa | 0 mm | - | 89 W/m² | - |
* Rain latest hour (hover to see other rain measurements)
** Current wind speed in m/s (hover to see current wind gust speed)